W1CAT Weather Reports


time (UTC)temp
C
wind
direction
speed
KPH
gust
KPH
rain 1hr
cm
rain 24hr
cm
rain mn
cm
humidity
%
barometer
mb
20260906223404 30 60 3.2 6.4 0.00 0.00 0.00 20
20260906222902 30 143 1.6 4.8 0.00 0.00 0.00 21
20260906222402 30 189 3.2 4.8 0.00 0.00 0.00 20
20260906221859 30 106 3.2 6.4 0.00 0.00 0.00 20
20260906221354 31 102 6.4 9.7 0.00 0.00 0.00 19
20260906220849 31 136 3.2 9.7 0.00 0.00 0.00 19
20260906220345 30 159 4.8 16.1 0.00 0.00 0.00 19
20260906215843 31 181 4.8 11.3 0.00 0.00 0.00 18
20260906215338 31 134 1.6 11.3 0.00 0.00 0.00 18
20260906214836 31 156 3.2 11.3 0.00 0.00 0.00 18
20260906214331 32 90 1.6 4.8 0.00 0.00 0.00 18
20260906213830 32 126 3.2 9.7 0.00 0.00 0.00 17
20260906213325 31 129 4.8 9.7 0.00 0.00 0.00 17
20260906212822 31 121 0.0 4.8 0.00 0.00 0.00 18
20260906212318 32 117 8.0 11.3 0.00 0.00 0.00 18
20260906211817 32 114 6.4 9.7 0.00 0.00 0.00 18
20260906211313 32 180 4.8 12.9 0.00 0.00 0.00 18
20260906210812 32 88 1.6 11.3 0.00 0.00 0.00 19
20260906210307 32 99 3.2 12.9 0.00 0.00 0.00 19
20260906205802 32 95 1.6 9.7 0.00 0.00 0.00 20
20260906205259 31 98 3.2 4.8 0.00 0.00 0.00 20
20260906204754 31 247 3.2 9.7 0.00 0.00 0.00 21
20260906204253 30 109 1.6 4.8 0.00 0.00 0.00 22
20260906203753 31 123 1.6 11.3 0.00 0.00 0.00 22
20260906203249 31 105 1.6 9.7 0.00 0.00 0.00 22
20260906202745 31 199 1.6 4.8 0.00 0.00 0.00 22
20260906202244 31 156 3.2 4.8 0.00 0.00 0.00 22
20260906201739 30 232 6.4 6.4 0.00 0.00 0.00 22
20260906201238 30 153 6.4 6.4 0.00 0.00 0.00 23
20260906200735 30 108 1.6 9.7 0.00 0.00 0.00 23
20260906200230 30 138 1.6 4.8 0.00 0.00 0.00 23
20260906195726 30 122 4.8 9.7 0.00 0.00 0.00 24
20260906195222 30 115 0.0 3.2 0.00 0.00 0.00 25
20260906194718 30 123 0.0 3.2 0.00 0.00 0.00 25
20260906194213 29 109 1.6 4.8 0.00 0.00 0.00 25
20260906193708 30 128 1.6 4.8 0.00 0.00 0.00 24
20260906193208 30 92 1.6 3.2 0.00 0.00 0.00 25
20260906192704 29 131 1.6 3.2 0.00 0.00 0.00 26
20260906192158 28 139 3.2 6.4 0.00 0.00 0.00 26
20260906191653 28 117 1.6 6.4 0.00 0.00 0.00 26
20260906191152 27 96 1.6 1.6 0.00 0.00 0.00 27
20260906190646 27 65 3.2 4.8 0.00 0.00 0.00 27
20260906190141 28 110 1.6 1.6 0.00 0.00 0.00 27
20260906185640 28 151 3.2 3.2 0.00 0.00 0.00 26
20260906185139 28 188 1.6 1.6 0.00 0.00 0.00 26
20260906184634 28 113 0.0 4.8 0.00 0.00 0.00 26
20260906184130 28 101 3.2 6.4 0.00 0.00 0.00 27
20260906183626 28 110 0.0 3.2 0.00 0.00 0.00 27
20260906183121 27 172 3.2 3.2 0.00 0.00 0.00 28
20260906182616 28 233 1.6 3.2 0.00 0.00 0.00 27
20260906182112 27 150 4.8 6.4 0.00 0.00 0.00 29
20260906181607 28 108 1.6 9.7 0.00 0.00 0.00 28
20260906181103 28 132 0.0 4.8 0.00 0.00 0.00 29
20260906180603 28 226 3.2 4.8 0.00 0.00 0.00 29
20260906175601 28 159 3.2 6.4 0.00 0.00 0.00 30
20260906175056 28 161 1.6 3.2 0.00 0.00 0.00 30
20260906174549 28 106 0.0 4.8 0.00 0.00 0.00 30
20260906174043 28 92 1.6 3.2 0.00 0.00 0.00 32
20260906173538 27 123 1.6 3.2 0.00 0.00 0.00 31
20260906173035 27 105 0.0 6.4 0.00 0.00 0.00 32
20260906172529 27 95 1.6 6.4 0.00 0.00 0.00 31
20260906172025 27 130 3.2 9.7 0.00 0.00 0.00 31
20260906171519 27 144 3.2 4.8 0.00 0.00 0.00 31
20260906171015 27 109 3.2 4.8 0.00 0.00 0.00 31
20260906170511 27 128 3.2 6.4 0.00 0.00 0.00 31
20260906170009 26 174 3.2 6.4 0.00 0.00 0.00 32
20260906165507 26 113 1.6 4.8 0.00 0.00 0.00 33
20260906165002 26 107 3.2 9.7 0.00 0.00 0.00 33
20260906164500 25 156 1.6 6.4 0.00 0.00 0.00 34
20260906163957 25 156 1.6 4.8 0.00 0.00 0.00 34
20260906163452 25 141 1.6 4.8 0.00 0.00 0.00 34
20260906162950 25 118 6.4 9.7 0.00 0.00 0.00 35
20260906162449 25 144 1.6 6.4 0.00 0.00 0.00 32
20260906161943 26 93 1.6 4.8 0.00 0.00 0.00 33
20260906161438 25 110 1.6 4.8 0.00 0.00 0.00 34
20260906160937 25 152 3.2 3.2 0.00 0.00 0.00 33
20260906160436 25 134 3.2 4.8 0.00 0.00 0.00 34
20260906155934 23 111 0.0 1.6 0.00 0.00 0.00 36
20260906155428 23 151 3.2 4.8 0.00 0.00 0.00 36
20260906154924 23 104 1.6 3.2 0.00 0.00 0.00 35
20260906154419 23 98 0.0 1.6 0.00 0.00 0.00 35
20260906153918 23 105 1.6 3.2 0.00 0.00 0.00 37
20260906153417 22 156 1.6 3.2 0.00 0.00 0.00 37
20260906152912 22 108 0.0 1.6 0.00 0.00 0.00 39
20260906152407 22 120 0.0 3.2 0.00 0.00 0.00 37
20260906151906 21 127 1.6 1.6 0.00 0.00 0.00 39
20260906151402 20 103 0.0 0.0 0.00 0.00 0.00 41
20260906150857 20 94 0.0 1.6 0.00 0.00 0.00 41
20260906150352 20 97 0.0 1.6 0.00 0.00 0.00 41
20260906145851 19 94 1.6 4.8 0.00 0.00 0.00 42
20260906145350 18 103 0.0 3.2 0.00 0.00 0.00 44
20260906144845 18 94 1.6 1.6 0.00 0.00 0.00 44
20260906144340 18 94 0.0 3.2 0.00 0.00 0.00 45
20260906143835 17 96 0.0 1.6 0.00 0.00 0.00 47
20260906143331 17 92 0.0 1.6 0.00 0.00 0.00 48
20260906142826 16 78 0.0 3.2 0.00 0.00 0.00 51
20260906142321 16 109 1.6 1.6 0.00 0.00 0.00 51
20260906141820 16 83 1.6 1.6 0.00 0.00 0.00 51
20260906141315 16 99 0.0 1.6 0.00 0.00 0.00 50
20260906140813 16 103 0.0 0.0 0.00 0.00 0.00 52
20260906140309 16 102 0.0 1.6 0.00 0.00 0.00 53
20260906135807 15 105 1.6 1.6 0.00 0.00 0.00 54
20260906135305 15 107 1.6 1.6 0.00 0.00 0.00 55
20260906134757 13 102 0.0 0.0 0.00 0.00 0.00 57
20260906134252 13 100 0.0 0.0 0.00 0.00 0.00 60
20260906133748 12 101 0.0 0.0 0.00 0.00 0.00 63
20260906133243 11 94 0.0 1.6 0.00 0.00 0.00 67
20260906132738 10 103 0.0 0.0 0.00 0.00 0.00 74
20260906132234 8 104 0.0 0.0 0.00 0.00 0.00 77
20260906131730 8 103 0.0 0.0 0.00 0.00 0.00 76
20260906131224 8 102 0.0 0.0 0.00 0.00 0.00 76
20260906130720 8 99 0.0 0.0 0.00 0.00 0.00 77
20260906130215 8 90 0.0 0.0 0.00 0.00 0.00 79
20260906125713 8 98 0.0 0.0 0.00 0.00 0.00 79
20260906125211 8 101 0.0 0.0 0.00 0.00 0.00 78
20260906124707 8 101 0.0 0.0 0.00 0.00 0.00 77
20260906124202 8 94 0.0 0.0 0.00 0.00 0.00 77
20260906123701 8 105 0.0 0.0 0.00 0.00 0.00 76
20260906123156 8 107 0.0 0.0 0.00 0.00 0.00 75
20260906122655 9 107 0.0 0.0 0.00 0.00 0.00 73
20260906122151 10 104 0.0 0.0 0.00 0.00 0.00 72
20260906121648 10 100 0.0 0.0 0.00 0.00 0.00 71
20260906121143 10 108 0.0 0.0 0.00 0.00 0.00 69
20260906120639 11 125 0.0 3.2 0.00 0.00 0.00 67
20260906120136 11 105 0.0 0.0 0.00 0.00 0.00 64
20260906115631 12 116 1.6 3.2 0.00 0.00 0.00 59
20260906115126 12 85 0.0 3.2 0.00 0.00 0.00 59
20260906114620 12 60 1.6 3.2 0.00 0.00 0.00 58
20260906114115 12 353 3.2 6.4 0.00 0.00 0.00 58
20260906113615 10 93 1.6 4.8 0.00 0.00 0.00 65
20260906113110 10 90 0.0 3.2 0.00 0.00 0.00 71
20260906112609 10 97 0.0 1.6 0.00 0.00 0.00 73
20260906112106 10 103 0.0 1.6 0.00 0.00 0.00 73
20260906111605 10 96 1.6 1.6 0.00 0.00 0.00 73
20260906111101 10 93 1.6 1.6 0.00 0.00 0.00 73
20260906110600 10 97 0.0 0.0 0.00 0.00 0.00 72
20260906110059 10 102 0.0 0.0 0.00 0.00 0.00 73
20260906105554 10 110 0.0 0.0 0.00 0.00 0.00 71
20260906105050 10 108 0.0 1.6 0.00 0.00 0.00 70
20260906104549 10 108 0.0 0.0 0.00 0.00 0.00 70
20260906104043 10 106 0.0 0.0 0.00 0.00 0.00 69
20260906103542 11 112 0.0 1.6 0.00 0.00 0.00 68
20260906102537 11 96 0.0 0.0 0.00 0.00 0.00 65
20260906102032 11 107 0.0 1.6 0.00 0.00 0.00 66
20260906101527 10 102 0.0 0.0 0.00 0.00 0.00 70
20260906101022 11 106 0.0 0.0 0.00 0.00 0.00 69
20260906100518 10 85 1.6 1.6 0.00 0.00 0.00 70
20260906100018 10 104 0.0 0.0 0.00 0.00 0.00 71
20260906095513 10 105 0.0 0.0 0.00 0.00 0.00 71
20260906095009 10 102 0.0 0.0 0.00 0.00 0.00 72
20260906094507 10 100 0.0 0.0 0.00 0.00 0.00 71
20260906094003 10 101 0.0 0.0 0.00 0.00 0.00 70
20260906093459 10 105 0.0 0.0 0.00 0.00 0.00 71
20260906092954 10 106 0.0 0.0 0.00 0.00 0.00 69
20260906092453 11 103 0.0 0.0 0.00 0.00 0.00 69
20260906091948 11 104 0.0 0.0 0.00 0.00 0.00 67
20260906091444 11 103 0.0 0.0 0.00 0.00 0.00 67
20260906090941 11 102 0.0 0.0 0.00 0.00 0.00 65
20260906090435 11 102 0.0 0.0 0.00 0.00 0.00 64
20260906085930 11 103 0.0 0.0 0.00 0.00 0.00 64
20260906085429 12 106 0.0 0.0 0.00 0.00 0.00 63
20260906084928 12 105 0.0 0.0 0.00 0.00 0.00 63
20260906084423 12 101 0.0 0.0 0.00 0.00 0.00 64
20260906083922 12 105 0.0 0.0 0.00 0.00 0.00 63
20260906083418 12 107 0.0 0.0 0.00 0.00 0.00 62
20260906082917 12 96 1.6 3.2 0.00 0.00 0.00 62
20260906082413 12 104 0.0 0.0 0.00 0.00 0.00 63
20260906081908 12 104 0.0 0.0 0.00 0.00 0.00 62
20260906081404 12 106 0.0 0.0 0.00 0.00 0.00 60
20260906080900 13 103 0.0 0.0 0.00 0.00 0.00 58
20260906080356 13 106 0.0 0.0 0.00 0.00 0.00 57
20260906075855 15 106 0.0 0.0 0.00 0.00 0.00 55
20260906075350 15 88 0.0 1.6 0.00 0.00 0.00 53
20260906074846 15 67 3.2 4.8 0.00 0.00 0.00 52
20260906074340 15 119 1.6 1.6 0.00 0.00 0.00 53
20260906073839 15 103 0.0 3.2 0.00 0.00 0.00 54
20260906073334 14 111 0.0 1.6 0.00 0.00 0.00 54
20260906072831 14 102 0.0 0.0 0.00 0.00 0.00 55
20260906072326 15 103 0.0 0.0 0.00 0.00 0.00 54
20260906071822 15 97 0.0 0.0 0.00 0.00 0.00 53
20260906071321 15 97 0.0 1.6 0.00 0.00 0.00 53
20260906070818 16 97 0.0 1.6 0.00 0.00 0.00 51
20260906070313 16 99 0.0 3.2 0.00 0.00 0.00 50
20260906065808 16 103 0.0 0.0 0.00 0.00 0.00 49
20260906065305 17 63 1.6 3.2 0.00 0.00 0.00 47
20260906064759 17 121 1.6 4.8 0.00 0.00 0.00 47
20260906064255 17 100 0.0 4.8 0.00 0.00 0.00 47
20260906063755 16 76 1.6 1.6 0.00 0.00 0.00 48
20260906063251 16 134 1.6 3.2 0.00 0.00 0.00 50
20260906062745 15 88 0.0 0.0 0.00 0.00 0.00 54
20260906062244 14 97 0.0 0.0 0.00 0.00 0.00 58
20260906061740 15 102 0.0 0.0 0.00 0.00 0.00 59
20260906061237 15 98 0.0 1.6 0.00 0.00 0.00 58
20260906060726 15 104 0.0 0.0 0.00 0.00 0.00 57
20260906060224 14 88 0.0 3.2 0.00 0.00 0.00 56
20260906055719 13 108 0.0 0.0 0.00 0.00 0.00 60
20260906055215 13 105 0.0 0.0 0.00 0.00 0.00 62
20260906054710 13 101 0.0 0.0 0.00 0.00 0.00 62
20260906054210 13 105 0.0 0.0 0.00 0.00 0.00 61
20260906053707 13 106 0.0 0.0 0.00 0.00 0.00 61
20260906053201 13 108 0.0 1.6 0.00 0.00 0.00 60
20260906052656 13 102 0.0 0.0 0.00 0.00 0.00 61
20260906052153 13 109 0.0 0.0 0.00 0.00 0.00 61
20260906051649 13 103 0.0 0.0 0.00 0.00 0.00 59
20260906051149 13 98 0.0 0.0 0.00 0.00 0.00 58
20260906050644 13 105 0.0 0.0 0.00 0.00 0.00 58
20260906050139 14 106 0.0 0.0 0.00 0.00 0.00 57
20260906045638 15 105 0.0 0.0 0.00 0.00 0.00 56
20260906045133 15 104 0.0 0.0 0.00 0.00 0.00 56
20260906044629 15 105 0.0 0.0 0.00 0.00 0.00 53
20260906044124 15 100 0.0 0.0 0.00 0.00 0.00 52
20260906043621 15 104 0.0 0.0 0.00 0.00 0.00 51
20260906043116 16 101 0.0 0.0 0.00 0.00 0.00 51
20260906042615 16 101 0.0 0.0 0.00 0.00 0.00 50
20260906042109 16 104 0.0 0.0 0.00 0.00 0.00 50
20260906041606 16 98 0.0 0.0 0.00 0.00 0.00 48
20260906041100 17 104 0.0 0.0 0.00 0.00 0.00 47
20260906040555 17 105 0.0 0.0 0.00 0.00 0.00 46
20260906040046 18 104 0.0 0.0 0.00 0.00 0.00 45
20260906035541 18 106 0.0 0.0 0.00 0.00 0.00 43
20260906035037 19 92 1.6 3.2 0.00 0.00 0.00 42
20260906034537 20 103 0.0 1.6 0.00 0.00 0.00 43
20260906034032 20 100 1.6 1.6 0.00 0.00 0.00 42
20260906033527 20 104 0.0 0.0 0.00 0.00 0.00 43
20260906033022 20 106 0.0 0.0 0.00 0.00 0.00 41
20260906032518 20 111 0.0 1.6 0.00 0.00 0.00 40
20260906032013 20 103 0.0 0.0 0.00 0.00 0.00 40
20260906031508 21 100 0.0 0.0 0.00 0.00 0.00 39
20260906031003 21 100 0.0 0.0 0.00 0.00 0.00 38
20260906030458 21 98 0.0 0.0 0.00 0.00 0.00 37
20260906025958 22 106 0.0 0.0 0.00 0.00 0.00 36
20260906025457 22 145 1.6 3.2 0.00 0.00 0.00 35
20260906024956 22 98 1.6 3.2 0.00 0.00 0.00 34
20260906024451 22 80 3.2 6.4 0.00 0.00 0.00 33
20260906023950 22 97 0.0 1.6 0.00 0.00 0.00 34
20260906023447 22 108 0.0 0.0 0.00 0.00 0.00 34
20260906022947 22 86 0.0 0.0 0.00 0.00 0.00 34
20260906022442 23 92 1.6 3.2 0.00 0.00 0.00 32
20260906021937 23 101 0.0 0.0 0.00 0.00 0.00 33
20260906021432 23 80 0.0 1.6 0.00 0.00 0.00 33
20260906020932 23 299 4.8 4.8 0.00 0.00 0.00 32
20260906020426 23 94 0.0 1.6 0.00 0.00 0.00 33
20260906015921 23 97 0.0 1.6 0.00 0.00 0.00 32
20260906015420 23 83 1.6 6.4 0.00 0.00 0.00 31
20260906014914 23 127 0.0 4.8 0.00 0.00 0.00 31
20260906014408 23 105 0.0 4.8 0.00 0.00 0.00 31
20260906013905 23 107 3.2 9.7 0.00 0.00 0.00 31
20260906013400 23 141 3.2 4.8 0.00 0.00 0.00 31
20260906012856 24 79 0.0 1.6 0.00 0.00 0.00 31
20260906012350 24 140 0.0 4.8 0.00 0.00 0.00 31
20260906011850 24 106 3.2 6.4 0.00 0.00 0.00 31
20260906011345 24 141 0.0 1.6 0.00 0.00 0.00 33
20260906010841 25 104 0.0 0.0 0.00 0.00 0.00 32
20260906010337 25 95 0.0 0.0 0.00 0.00 0.00 31
20260906005832 26 98 0.0 0.0 0.00 0.00 0.00 30
20260906005331 25 103 0.0 0.0 0.00 0.00 0.00 29
20260906004830 25 102 0.0 0.0 0.00 0.00 0.00 29
20260906004330 25 106 0.0 0.0 0.00 0.00 0.00 29
20260906003825 25 115 0.0 3.2 0.00 0.00 0.00 28
20260906003321 25 104 0.0 1.6 0.00 0.00 0.00 27
20260906002816 25 105 0.0 3.2 0.00 0.00 0.00 27
20260906002315 26 153 0.0 3.2 0.00 0.00 0.00 27
20260906001811 26 147 1.6 4.8 0.00 0.00 0.00 27
20260906001307 26 106 0.0 3.2 0.00 0.00 0.00 27
20260906000807 26 109 1.6 3.2 0.00 0.00 0.00 26
20260906000303 27 118 1.6 3.2 0.00 0.00 0.00 25
20260905235756 27 81 3.2 6.4 0.00 0.00 0.00 24
20260905235256 27 133 3.2 4.8 0.00 0.00 0.00 25
20260905234752 27 98 1.6 3.2 0.00 0.00 0.00 25
20260905234246 28 91 3.2 6.4 0.00 0.00 0.00 24
20260905233743 28 121 3.2 4.8 0.00 0.00 0.00 24
20260905233242 28 133 3.2 4.8 0.00 0.00 0.00 23
20260905232741 29 193 1.6 4.8 0.00 0.00 0.00 23
20260905232237 30 128 4.8 6.4 0.00 0.00 0.00 22
20260905231733 30 108 3.2 4.8 0.00 0.00 0.00 22
20260905231228 32 195 1.6 4.8 0.00 0.00 0.00 21
20260905230725 32 168 3.2 4.8 0.00 0.00 0.00 21
20260905230222 32 164 3.2 6.4 0.00 0.00 0.00 20
20260905225722 31 112 0.0 3.2 0.00 0.00 0.00 21
20260905225217 31 83 3.2 3.2 0.00 0.00 0.00 20
20260905224716 30 101 1.6 1.6 0.00 0.00 0.00 21
20260905224211 30 92 1.6 3.2 0.00 0.00 0.00 22